Year,Month,Day,Hour,Minute,Value (Times are PST for temperature in C)
2015,04,29,00,00,9.70
2015,04,29,00,01,9.70
2015,04,29,00,02,9.80
2015,04,29,00,03,9.80
2015,04,29,00,04,9.80
2015,04,29,00,05,9.80
2015,04,29,00,06,9.80
2015,04,29,00,07,9.90
2015,04,29,00,08,10.00
2015,04,29,00,09,10.10
2015,04,29,00,10,10.10
2015,04,29,00,11,10.10
2015,04,29,00,12,10.10
2015,04,29,00,13,10.20
2015,04,29,00,14,10.20
2015,04,29,00,15,10.10
2015,04,29,00,16,10.00
2015,04,29,00,17,9.90
2015,04,29,00,18,9.90
2015,04,29,00,19,9.80
2015,04,29,00,20,9.80
2015,04,29,00,21,9.80
2015,04,29,00,22,9.90
2015,04,29,00,23,9.90
2015,04,29,00,24,10.00
2015,04,29,00,25,10.00
2015,04,29,00,26,10.10
2015,04,29,00,27,10.20
2015,04,29,00,28,10.20
2015,04,29,00,29,10.20
2015,04,29,00,30,10.20
2015,04,29,00,31,10.20
2015,04,29,00,32,10.20
2015,04,29,00,33,10.20
2015,04,29,00,34,10.20
2015,04,29,00,35,10.20
2015,04,29,00,36,10.20
2015,04,29,00,37,10.20
2015,04,29,00,38,10.20
2015,04,29,00,39,10.30
2015,04,29,00,40,10.30
2015,04,29,00,41,10.30
2015,04,29,00,42,10.30
2015,04,29,00,43,10.30
2015,04,29,00,44,10.30
2015,04,29,00,45,10.20
2015,04,29,00,46,10.10
2015,04,29,00,47,10.00
2015,04,29,00,48,9.90
2015,04,29,00,49,9.80
2015,04,29,00,50,9.70
2015,04,29,00,51,9.60
2015,04,29,00,52,9.50
2015,04,29,00,53,9.40
2015,04,29,00,54,9.20
2015,04,29,00,55,9.10
2015,04,29,00,56,9.00
2015,04,29,00,57,8.90
2015,04,29,00,58,8.70
2015,04,29,00,59,8.60
2015,04,29,01,00,8.50
2015,04,29,01,01,8.40
2015,04,29,01,02,8.40
2015,04,29,01,03,8.30
2015,04,29,01,04,8.20
2015,04,29,01,05,8.20
2015,04,29,01,06,8.10
2015,04,29,01,07,8.10
2015,04,29,01,08,8.00
2015,04,29,01,09,7.90
2015,04,29,01,10,7.90
2015,04,29,01,11,7.80
2015,04,29,01,12,7.80
2015,04,29,01,13,7.80
2015,04,29,01,14,7.80
2015,04,29,01,15,7.70
2015,04,29,01,16,7.70
2015,04,29,01,17,7.70
2015,04,29,01,18,7.70
2015,04,29,01,19,7.70
2015,04,29,01,20,7.70
2015,04,29,01,21,7.80
2015,04,29,01,22,7.80
2015,04,29,01,23,7.80
2015,04,29,01,24,7.80
2015,04,29,01,25,7.90
2015,04,29,01,26,8.00
2015,04,29,01,27,8.10
2015,04,29,01,28,8.30
2015,04,29,01,29,8.40
2015,04,29,01,30,8.50
2015,04,29,01,31,8.60
2015,04,29,01,32,8.60
2015,04,29,01,33,8.60
2015,04,29,01,34,8.70
2015,04,29,01,35,8.60
2015,04,29,01,36,8.60
2015,04,29,01,37,8.60
2015,04,29,01,38,8.60
2015,04,29,01,39,8.60
2015,04,29,01,40,8.70
2015,04,29,01,41,8.70
2015,04,29,01,42,8.80
2015,04,29,01,43,8.80
2015,04,29,01,44,8.90
2015,04,29,01,45,8.90
2015,04,29,01,46,9.00
2015,04,29,01,47,9.10
2015,04,29,01,48,9.10
2015,04,29,01,49,9.20
2015,04,29,01,50,9.30
2015,04,29,01,51,9.30
2015,04,29,01,52,9.30
2015,04,29,01,53,9.30
2015,04,29,01,54,9.30
2015,04,29,01,55,9.30
2015,04,29,01,56,9.30
2015,04,29,01,57,9.20
2015,04,29,01,58,9.20
2015,04,29,01,59,9.20
2015,04,29,02,00,9.10
2015,04,29,02,01,9.00
2015,04,29,02,02,8.90
2015,04,29,02,03,8.90
2015,04,29,02,04,8.80
2015,04,29,02,05,8.80
2015,04,29,02,06,8.90
2015,04,29,02,07,8.90
2015,04,29,02,08,8.90
2015,04,29,02,09,8.90
2015,04,29,02,10,8.80
2015,04,29,02,11,8.70
2015,04,29,02,12,8.60
2015,04,29,02,13,8.60
2015,04,29,02,14,8.50
2015,04,29,02,15,8.50
2015,04,29,02,16,8.50
2015,04,29,02,17,8.50
2015,04,29,02,18,8.60
2015,04,29,02,19,8.60
2015,04,29,02,20,8.70
2015,04,29,02,21,8.80
2015,04,29,02,22,8.90
2015,04,29,02,23,8.90
2015,04,29,02,24,8.90
2015,04,29,02,25,8.90
2015,04,29,02,26,8.90
2015,04,29,02,27,8.90
2015,04,29,02,28,8.90
2015,04,29,02,29,8.90
2015,04,29,02,30,8.90
2015,04,29,02,31,8.80
2015,04,29,02,32,8.80
2015,04,29,02,33,8.80
2015,04,29,02,34,8.80
2015,04,29,02,35,8.70
2015,04,29,02,36,8.70
2015,04,29,02,37,8.60
2015,04,29,02,38,8.50
2015,04,29,02,39,8.40
2015,04,29,02,40,8.30
2015,04,29,02,41,8.10
2015,04,29,02,42,8.00
2015,04,29,02,43,7.90
2015,04,29,02,44,7.80
2015,04,29,02,45,7.70
2015,04,29,02,46,7.60
2015,04,29,02,47,7.60
2015,04,29,02,48,7.50
2015,04,29,02,49,7.50
2015,04,29,02,50,7.50
2015,04,29,02,51,7.50
2015,04,29,02,52,7.50
2015,04,29,02,53,7.50
2015,04,29,02,54,7.50
2015,04,29,02,55,7.40
2015,04,29,02,56,7.40
2015,04,29,02,57,7.40
2015,04,29,02,58,7.40
2015,04,29,02,59,7.40
2015,04,29,03,00,7.50
2015,04,29,03,01,7.50
2015,04,29,03,02,7.60
2015,04,29,03,03,7.60
2015,04,29,03,04,7.70
2015,04,29,03,05,7.70
2015,04,29,03,06,7.80
2015,04,29,03,07,7.90
2015,04,29,03,08,7.90
2015,04,29,03,09,8.00
2015,04,29,03,10,8.00
2015,04,29,03,11,8.00
2015,04,29,03,12,7.90
2015,04,29,03,13,7.90
2015,04,29,03,14,7.90
2015,04,29,03,15,7.90
2015,04,29,03,16,7.90
2015,04,29,03,17,7.80
2015,04,29,03,18,7.80
2015,04,29,03,19,7.80
2015,04,29,03,20,7.70
2015,04,29,03,21,7.70
2015,04,29,03,22,7.70
2015,04,29,03,23,7.60
2015,04,29,03,24,7.60
2015,04,29,03,25,7.60
2015,04,29,03,26,7.60
2015,04,29,03,27,7.60
2015,04,29,03,28,7.60
2015,04,29,03,29,7.60
2015,04,29,03,30,7.60
2015,04,29,03,31,7.70
2015,04,29,03,32,7.70
2015,04,29,03,33,7.70
2015,04,29,03,34,7.80
2015,04,29,03,35,8.00
2015,04,29,03,36,8.10
2015,04,29,03,37,8.20
2015,04,29,03,38,8.30
2015,04,29,03,39,8.40
2015,04,29,03,40,8.50
2015,04,29,03,41,8.50
2015,04,29,03,42,8.50
2015,04,29,03,43,8.50
2015,04,29,03,44,8.50
2015,04,29,03,45,8.50
2015,04,29,03,46,8.50
2015,04,29,03,47,8.50
2015,04,29,03,48,8.50
2015,04,29,03,49,8.50
2015,04,29,03,50,8.40
2015,04,29,03,51,8.40
2015,04,29,03,52,8.30
2015,04,29,03,53,8.20
2015,04,29,03,54,8.10
2015,04,29,03,55,8.10
2015,04,29,03,56,8.00
2015,04,29,03,57,7.90
2015,04,29,03,58,7.90
2015,04,29,03,59,7.90
2015,04,29,04,00,7.90
2015,04,29,04,01,8.00
2015,04,29,04,02,8.00
2015,04,29,04,03,8.10
2015,04,29,04,04,8.10
2015,04,29,04,05,8.10
2015,04,29,04,06,8.10
2015,04,29,04,07,8.10
2015,04,29,04,08,8.10
2015,04,29,04,09,8.10
2015,04,29,04,10,8.20
2015,04,29,04,11,8.20
2015,04,29,04,12,8.20
2015,04,29,04,13,8.20
2015,04,29,04,14,8.30
2015,04,29,04,15,8.40
2015,04,29,04,16,8.40
2015,04,29,04,17,8.50
2015,04,29,04,18,8.50
2015,04,29,04,19,8.60
2015,04,29,04,20,8.60
2015,04,29,04,21,8.70
2015,04,29,04,22,8.80
2015,04,29,04,23,8.90
2015,04,29,04,24,8.90
2015,04,29,04,25,9.00
2015,04,29,04,26,9.10
2015,04,29,04,27,9.10
2015,04,29,04,28,9.10
2015,04,29,04,29,9.20
2015,04,29,04,30,9.20
2015,04,29,04,31,9.30
2015,04,29,04,32,9.30
2015,04,29,04,33,9.30
2015,04,29,04,34,9.30
2015,04,29,04,35,9.30
2015,04,29,04,36,9.30
2015,04,29,04,37,9.40
2015,04,29,04,38,9.40
2015,04,29,04,39,9.40
2015,04,29,04,40,9.40
2015,04,29,04,41,9.40
2015,04,29,04,42,9.40
2015,04,29,04,43,9.40
2015,04,29,04,44,9.40
2015,04,29,04,45,9.40
2015,04,29,04,46,9.40
2015,04,29,04,47,9.40
2015,04,29,04,48,9.40
2015,04,29,04,49,9.40
2015,04,29,04,50,9.40
2015,04,29,04,51,9.40
2015,04,29,04,52,9.40
2015,04,29,04,53,9.30
2015,04,29,04,54,9.30
2015,04,29,04,55,9.30
2015,04,29,04,56,9.30
2015,04,29,04,57,9.30
2015,04,29,04,58,9.30
2015,04,29,04,59,9.30
2015,04,29,05,00,9.20
2015,04,29,05,01,9.20
2015,04,29,05,02,9.20
2015,04,29,05,03,9.20
2015,04,29,05,04,9.20
2015,04,29,05,05,9.10
2015,04,29,05,06,9.00
2015,04,29,05,07,8.90
2015,04,29,05,08,8.90
2015,04,29,05,09,8.90
2015,04,29,05,10,8.80
2015,04,29,05,11,8.70
2015,04,29,05,12,8.60
2015,04,29,05,13,8.50
2015,04,29,05,14,8.50
2015,04,29,05,15,8.50
2015,04,29,05,16,8.50
2015,04,29,05,17,8.50
2015,04,29,05,18,8.50
2015,04,29,05,19,8.50
2015,04,29,05,20,8.50
2015,04,29,05,21,8.60
2015,04,29,05,22,8.60
2015,04,29,05,23,8.60
2015,04,29,05,24,8.60
2015,04,29,05,25,8.50
2015,04,29,05,26,8.50
2015,04,29,05,27,8.50
2015,04,29,05,28,8.50
2015,04,29,05,29,8.50
2015,04,29,05,30,8.50
2015,04,29,05,31,8.40
2015,04,29,05,32,8.40
2015,04,29,05,33,8.40
2015,04,29,05,34,8.30
2015,04,29,05,35,8.30
2015,04,29,05,36,8.30
2015,04,29,05,37,8.30
2015,04,29,05,38,8.20
2015,04,29,05,39,8.20
2015,04,29,05,40,8.10
2015,04,29,05,41,8.10
2015,04,29,05,42,8.00
2015,04,29,05,43,8.00
2015,04,29,05,44,7.90
2015,04,29,05,45,7.80
2015,04,29,05,46,7.80
2015,04,29,05,47,7.70
2015,04,29,05,48,7.70
2015,04,29,05,49,7.60
2015,04,29,05,50,7.60
2015,04,29,05,51,7.50
2015,04,29,05,52,7.50
2015,04,29,05,53,7.50
2015,04,29,05,54,7.50
2015,04,29,05,55,7.40
2015,04,29,05,56,7.40
2015,04,29,05,57,7.40
2015,04,29,05,58,7.50
2015,04,29,05,59,7.50
2015,04,29,06,00,7.60
2015,04,29,06,01,7.70
2015,04,29,06,02,7.70
2015,04,29,06,03,7.80
2015,04,29,06,04,7.80
2015,04,29,06,05,7.90
2015,04,29,06,06,8.00
2015,04,29,06,07,8.10
2015,04,29,06,08,8.20
2015,04,29,06,09,8.40
2015,04,29,06,10,8.50
2015,04,29,06,11,8.70
2015,04,29,06,12,8.80
2015,04,29,06,13,8.90
2015,04,29,06,14,9.00
2015,04,29,06,15,9.10
2015,04,29,06,16,9.20
2015,04,29,06,17,9.30
2015,04,29,06,18,9.30
2015,04,29,06,19,9.40
2015,04,29,06,20,9.40
2015,04,29,06,21,9.50
2015,04,29,06,22,9.50
2015,04,29,06,23,9.60
2015,04,29,06,24,9.60
2015,04,29,06,25,9.70
2015,04,29,06,26,9.70
2015,04,29,06,27,9.80
2015,04,29,06,28,9.80
2015,04,29,06,29,9.80
2015,04,29,06,30,9.80
2015,04,29,06,31,9.80
2015,04,29,06,32,9.90
2015,04,29,06,33,9.90
2015,04,29,06,34,9.90
2015,04,29,06,35,9.90
2015,04,29,06,36,9.90
2015,04,29,06,37,9.90
2015,04,29,06,38,9.90
2015,04,29,06,39,9.90
2015,04,29,06,40,9.90
2015,04,29,06,41,9.90
2015,04,29,06,42,9.90
2015,04,29,06,43,9.90
2015,04,29,06,44,9.80
2015,04,29,06,45,9.80
2015,04,29,06,46,9.80
2015,04,29,06,47,9.80
2015,04,29,06,48,9.80
2015,04,29,06,49,9.80
2015,04,29,06,50,9.80
2015,04,29,06,51,9.80
2015,04,29,06,52,9.80
2015,04,29,06,53,9.80
2015,04,29,06,54,9.80
2015,04,29,06,55,9.80
2015,04,29,06,56,9.80
2015,04,29,06,57,9.80
2015,04,29,06,58,9.70
2015,04,29,06,59,9.70
2015,04,29,07,00,9.70
2015,04,29,07,01,9.70
2015,04,29,07,02,9.70
2015,04,29,07,03,9.70
2015,04,29,07,04,9.70
2015,04,29,07,05,9.70
2015,04,29,07,06,9.70
2015,04,29,07,07,9.70
2015,04,29,07,08,9.70
2015,04,29,07,09,9.70
2015,04,29,07,10,9.70
2015,04,29,07,11,9.70
2015,04,29,07,12,9.70
2015,04,29,07,13,9.70
2015,04,29,07,14,9.70
2015,04,29,07,15,9.70
2015,04,29,07,16,9.70
2015,04,29,07,17,9.70
2015,04,29,07,18,9.70
2015,04,29,07,19,9.70
2015,04,29,07,20,9.70
2015,04,29,07,21,9.70
2015,04,29,07,22,9.70
2015,04,29,07,23,9.70
2015,04,29,07,24,9.70
2015,04,29,07,25,9.70
2015,04,29,07,26,9.70
2015,04,29,07,27,9.70
2015,04,29,07,28,9.70
2015,04,29,07,29,9.70
2015,04,29,07,30,9.70
2015,04,29,07,31,9.70
2015,04,29,07,32,9.70
2015,04,29,07,33,9.70
2015,04,29,07,34,9.70
2015,04,29,07,35,9.70
2015,04,29,07,36,9.70
2015,04,29,07,37,9.70
2015,04,29,07,38,9.70
2015,04,29,07,39,9.70
2015,04,29,07,40,9.70
2015,04,29,07,41,9.70
2015,04,29,07,42,9.70
2015,04,29,07,43,9.70
2015,04,29,07,44,9.70
2015,04,29,07,45,9.70
2015,04,29,07,46,9.70
2015,04,29,07,47,9.70
2015,04,29,07,48,9.70
2015,04,29,07,49,9.80
2015,04,29,07,50,9.80
2015,04,29,07,51,9.80
2015,04,29,07,52,9.80
2015,04,29,07,53,9.80
2015,04,29,07,54,9.80
2015,04,29,07,55,9.80
2015,04,29,07,56,9.90
2015,04,29,07,57,9.90
2015,04,29,07,58,9.90
2015,04,29,07,59,9.90
2015,04,29,08,00,9.90
2015,04,29,08,01,9.90
2015,04,29,08,02,9.90
2015,04,29,08,03,9.90
2015,04,29,08,04,9.90
2015,04,29,08,05,10.00
2015,04,29,08,06,10.00
2015,04,29,08,07,10.00
2015,04,29,08,08,10.00
2015,04,29,08,09,10.00
2015,04,29,08,10,10.10
2015,04,29,08,11,10.10
2015,04,29,08,12,10.10
2015,04,29,08,13,10.10
2015,04,29,08,14,10.10
2015,04,29,08,15,10.10
2015,04,29,08,16,10.20
2015,04,29,08,17,10.20
2015,04,29,08,18,10.20
2015,04,29,08,19,10.20
2015,04,29,08,20,10.20
2015,04,29,08,21,10.20
2015,04,29,08,22,10.20
2015,04,29,08,23,10.20
2015,04,29,08,24,10.30
2015,04,29,08,25,10.30
2015,04,29,08,26,10.30
2015,04,29,08,27,10.30
2015,04,29,08,28,10.30
2015,04,29,08,29,10.40
2015,04,29,08,30,10.40
2015,04,29,08,31,10.40
2015,04,29,08,32,10.40
2015,04,29,08,33,10.40
2015,04,29,08,34,10.50
2015,04,29,08,35,10.50
2015,04,29,08,36,10.50
2015,04,29,08,37,10.50
2015,04,29,08,38,10.60
2015,04,29,08,39,10.60
2015,04,29,08,40,10.60
2015,04,29,08,41,10.60
2015,04,29,08,42,10.60
2015,04,29,08,43,10.70
2015,04,29,08,44,10.70
2015,04,29,08,45,10.70
2015,04,29,08,46,10.80
2015,04,29,08,47,10.80
2015,04,29,08,48,10.90
2015,04,29,08,49,10.90
2015,04,29,08,50,11.00
2015,04,29,08,51,11.10
2015,04,29,08,52,11.10
2015,04,29,08,53,11.10
2015,04,29,08,54,11.20
2015,04,29,08,55,11.20
2015,04,29,08,56,11.30
2015,04,29,08,57,11.30
2015,04,29,08,58,11.40
2015,04,29,08,59,11.40
2015,04,29,09,00,11.40
2015,04,29,09,01,11.40
2015,04,29,09,02,11.50
2015,04,29,09,03,11.50
2015,04,29,09,04,11.60
2015,04,29,09,05,11.60
2015,04,29,09,06,11.70
2015,04,29,09,07,11.70
2015,04,29,09,08,11.80
2015,04,29,09,09,11.80
2015,04,29,09,10,11.80
2015,04,29,09,11,11.80
2015,04,29,09,12,11.80
2015,04,29,09,13,11.90
2015,04,29,09,14,11.90
2015,04,29,09,15,12.00
2015,04,29,09,16,12.00
2015,04,29,09,17,12.10
2015,04,29,09,18,12.20
2015,04,29,09,19,12.20
2015,04,29,09,20,12.20
2015,04,29,09,21,12.20
2015,04,29,09,22,12.20
2015,04,29,09,23,12.10
2015,04,29,09,24,12.10
2015,04,29,09,25,12.10
2015,04,29,09,26,12.10
2015,04,29,09,27,12.20
2015,04,29,09,28,12.20
2015,04,29,09,29,12.30
2015,04,29,09,30,12.40
2015,04,29,09,31,12.40
2015,04,29,09,32,12.50
2015,04,29,09,33,12.60
2015,04,29,09,34,12.70
2015,04,29,09,35,12.80
2015,04,29,09,36,12.90
2015,04,29,09,37,13.00
2015,04,29,09,38,13.10
2015,04,29,09,39,13.10
2015,04,29,09,40,13.10
2015,04,29,09,41,13.20
2015,04,29,09,42,13.20
2015,04,29,09,43,13.20
2015,04,29,09,44,13.20
2015,04,29,09,45,13.20
2015,04,29,09,46,13.20
2015,04,29,09,47,13.20
2015,04,29,09,48,13.30
2015,04,29,09,49,13.30
2015,04,29,09,50,13.40
2015,04,29,09,51,13.50
2015,04,29,09,52,13.60
2015,04,29,09,53,13.70
2015,04,29,09,54,13.70
2015,04,29,09,55,13.80
2015,04,29,09,56,13.80
2015,04,29,09,57,13.80
2015,04,29,09,58,13.80
2015,04,29,09,59,13.80
2015,04,29,10,00,13.80
2015,04,29,10,01,13.80
2015,04,29,10,02,13.80
2015,04,29,10,03,13.70
2015,04,29,10,04,13.70
2015,04,29,10,05,13.70
2015,04,29,10,06,13.70
2015,04,29,10,07,13.60
2015,04,29,10,08,13.50
2015,04,29,10,09,13.50
2015,04,29,10,10,13.40
2015,04,29,10,11,13.40
2015,04,29,10,12,13.40
2015,04,29,10,13,13.30
2015,04,29,10,14,13.30
2015,04,29,10,15,13.20
2015,04,29,10,16,13.20
2015,04,29,10,17,13.10
2015,04,29,10,18,13.10
2015,04,29,10,19,13.10
2015,04,29,10,20,13.10
2015,04,29,10,21,13.00
2015,04,29,10,22,13.00
2015,04,29,10,23,12.90
2015,04,29,10,24,12.90
2015,04,29,10,25,12.90
2015,04,29,10,26,12.90
2015,04,29,10,27,12.90
2015,04,29,10,28,13.00
2015,04,29,10,29,13.10
2015,04,29,10,30,13.10
2015,04,29,10,31,13.20
2015,04,29,10,32,13.30
2015,04,29,10,33,13.40
2015,04,29,10,34,13.50
2015,04,29,10,35,13.70
2015,04,29,10,36,13.80
2015,04,29,10,37,13.80
2015,04,29,10,38,13.80
2015,04,29,10,39,13.80
2015,04,29,10,40,13.80
2015,04,29,10,41,13.80
2015,04,29,10,42,13.90
2015,04,29,10,43,13.90
2015,04,29,10,44,13.90
2015,04,29,10,45,13.90
2015,04,29,10,46,13.80
2015,04,29,10,47,13.70
2015,04,29,10,48,13.70
2015,04,29,10,49,13.70
2015,04,29,10,50,13.70
2015,04,29,10,51,13.70
2015,04,29,10,52,13.70
2015,04,29,10,53,13.70
2015,04,29,10,54,13.70
2015,04,29,10,55,13.80
2015,04,29,10,56,13.80
2015,04,29,10,57,13.90
2015,04,29,10,58,13.90
2015,04,29,10,59,14.00
2015,04,29,11,00,14.00
2015,04,29,11,01,13.90
2015,04,29,11,02,13.90
2015,04,29,11,03,14.00
2015,04,29,11,04,14.00
2015,04,29,11,05,14.10
2015,04,29,11,06,14.20
2015,04,29,11,07,14.30
2015,04,29,11,08,14.40
2015,04,29,11,09,14.50
2015,04,29,11,10,14.60
2015,04,29,11,11,14.60
2015,04,29,11,12,14.60
2015,04,29,11,13,14.60
2015,04,29,11,14,14.60
2015,04,29,11,15,14.60
2015,04,29,11,16,14.50
2015,04,29,11,17,14.40
2015,04,29,11,18,14.40
2015,04,29,11,19,14.30
2015,04,29,11,20,14.30
2015,04,29,11,21,14.30
2015,04,29,11,22,14.20
2015,04,29,11,23,14.10
2015,04,29,11,24,14.00
2015,04,29,11,25,13.80
2015,04,29,11,26,13.70
2015,04,29,11,27,13.60
2015,04,29,11,28,13.50
2015,04,29,11,29,13.40
2015,04,29,11,30,13.30
2015,04,29,11,31,13.30
2015,04,29,11,32,13.30
2015,04,29,11,33,13.30
2015,04,29,11,34,13.30
2015,04,29,11,35,13.20
2015,04,29,11,36,13.20
2015,04,29,11,37,13.10
2015,04,29,11,38,13.10
2015,04,29,11,39,13.10
2015,04,29,11,40,13.10
2015,04,29,11,41,13.10
2015,04,29,11,42,13.10
2015,04,29,11,43,13.10
2015,04,29,11,44,13.10
2015,04,29,11,45,13.20
2015,04,29,11,46,13.20
2015,04,29,11,47,13.20
2015,04,29,11,48,13.20
2015,04,29,11,49,13.20
2015,04,29,11,50,13.20
2015,04,29,11,51,13.20
2015,04,29,11,52,13.20
2015,04,29,11,53,13.20
2015,04,29,11,54,13.10
2015,04,29,11,55,13.10
2015,04,29,11,56,13.10
2015,04,29,11,57,13.00
2015,04,29,11,58,13.00
2015,04,29,11,59,13.00
2015,04,29,12,00,13.00
2015,04,29,12,01,13.00
2015,04,29,12,02,13.00
2015,04,29,12,03,13.00
2015,04,29,12,04,13.10
2015,04,29,12,05,13.10
2015,04,29,12,06,13.10
2015,04,29,12,07,13.20
2015,04,29,12,08,13.30
2015,04,29,12,09,13.30
2015,04,29,12,10,13.40
2015,04,29,12,11,13.50
2015,04,29,12,12,13.50
2015,04,29,12,13,13.60
2015,04,29,12,14,13.60
2015,04,29,12,15,13.60
2015,04,29,12,16,13.50
2015,04,29,12,17,13.50
2015,04,29,12,18,13.50
2015,04,29,12,19,13.50
2015,04,29,12,20,13.60
2015,04,29,12,21,13.60
2015,04,29,12,22,13.70
2015,04,29,12,23,13.70
2015,04,29,12,24,13.80
2015,04,29,12,25,13.80
2015,04,29,12,26,13.90
2015,04,29,12,27,13.90
2015,04,29,12,28,13.90
2015,04,29,12,29,13.90
2015,04,29,12,30,13.90
2015,04,29,12,31,13.90
2015,04,29,12,32,13.90
2015,04,29,12,33,13.90
2015,04,29,12,34,13.80
2015,04,29,12,35,13.80
2015,04,29,12,36,13.80
2015,04,29,12,37,13.80
2015,04,29,12,38,13.80
2015,04,29,12,39,13.80
2015,04,29,12,40,13.90
2015,04,29,12,41,13.90
2015,04,29,12,42,14.00
2015,04,29,12,43,14.00
2015,04,29,12,44,14.00
2015,04,29,12,45,14.10
2015,04,29,12,46,14.10
2015,04,29,12,47,14.10
2015,04,29,12,48,14.10
2015,04,29,12,49,14.20
2015,04,29,12,50,14.20
2015,04,29,12,51,14.30
2015,04,29,12,52,14.30
2015,04,29,12,53,14.30
2015,04,29,12,54,14.30
2015,04,29,12,55,14.30
2015,04,29,12,56,14.20
2015,04,29,12,57,14.20
2015,04,29,12,58,14.20
2015,04,29,12,59,14.20
2015,04,29,13,00,14.20
2015,04,29,13,01,14.10
2015,04,29,13,02,14.10
2015,04,29,13,03,14.10
2015,04,29,13,04,14.10
2015,04,29,13,05,14.20
2015,04,29,13,06,14.20
2015,04,29,13,07,14.20
2015,04,29,13,08,14.30
2015,04,29,13,09,14.40
2015,04,29,13,10,14.40
2015,04,29,13,11,14.50
2015,04,29,13,12,14.50
2015,04,29,13,13,14.50
2015,04,29,13,14,14.40
2015,04,29,13,15,14.40
2015,04,29,13,16,14.30
2015,04,29,13,17,14.30
2015,04,29,13,18,14.20
2015,04,29,13,19,14.20
2015,04,29,13,20,14.10
2015,04,29,13,21,14.00
2015,04,29,13,22,14.00
2015,04,29,13,23,13.90
2015,04,29,13,24,13.90
2015,04,29,13,25,13.80
2015,04,29,13,26,13.80
2015,04,29,13,27,13.70
2015,04,29,13,28,13.60
2015,04,29,13,29,13.50
2015,04,29,13,30,13.50
2015,04,29,13,31,13.40
2015,04,29,13,32,13.30
2015,04,29,13,33,13.30
2015,04,29,13,34,13.20
2015,04,29,13,35,13.20
2015,04,29,13,36,13.10
2015,04,29,13,37,13.10
2015,04,29,13,38,13.00
2015,04,29,13,39,13.00
2015,04,29,13,40,12.90
2015,04,29,13,41,12.90
2015,04,29,13,42,12.90
2015,04,29,13,43,12.80
2015,04,29,13,44,12.80
2015,04,29,13,45,12.70
2015,04,29,13,46,12.60
2015,04,29,13,47,12.50
2015,04,29,13,48,12.40
2015,04,29,13,49,12.30
2015,04,29,13,50,12.30
2015,04,29,13,51,12.30
2015,04,29,13,52,12.20
2015,04,29,13,53,12.20
2015,04,29,13,54,12.20
2015,04,29,13,55,12.30
2015,04,29,13,56,12.30
2015,04,29,13,57,12.30
2015,04,29,13,58,12.40
2015,04,29,13,59,12.40
2015,04,29,14,00,12.50
2015,04,29,14,01,12.60
2015,04,29,14,02,12.70
2015,04,29,14,03,12.80
2015,04,29,14,04,12.90
2015,04,29,14,05,13.00
2015,04,29,14,06,13.10
2015,04,29,14,07,13.20
2015,04,29,14,08,13.40
2015,04,29,14,09,13.50
2015,04,29,14,10,13.60
2015,04,29,14,11,13.60
2015,04,29,14,12,13.70
2015,04,29,14,13,13.70
2015,04,29,14,14,13.70
2015,04,29,14,15,13.70
2015,04,29,14,16,13.60
2015,04,29,14,17,13.60
2015,04,29,14,18,13.50
2015,04,29,14,19,13.50
2015,04,29,14,20,13.50
2015,04,29,14,21,13.40
2015,04,29,14,22,13.40
2015,04,29,14,23,13.40
2015,04,29,14,24,13.40
2015,04,29,14,25,13.30
2015,04,29,14,26,13.30
2015,04,29,14,27,13.30
2015,04,29,14,28,13.30
2015,04,29,14,29,13.30
2015,04,29,14,30,13.40
2015,04,29,14,31,13.40
2015,04,29,14,32,13.40
2015,04,29,14,33,13.30
2015,04,29,14,34,13.30
2015,04,29,14,35,13.30
2015,04,29,14,36,13.30
2015,04,29,14,37,13.30
2015,04,29,14,38,13.20
2015,04,29,14,39,13.20
2015,04,29,14,40,13.20
2015,04,29,14,41,13.20
2015,04,29,14,42,13.30
2015,04,29,14,43,13.30
2015,04,29,14,44,13.30
2015,04,29,14,45,13.30
2015,04,29,14,46,13.30
2015,04,29,14,47,13.30
2015,04,29,14,48,13.30
2015,04,29,14,49,13.30
2015,04,29,14,50,13.30
2015,04,29,14,51,13.30
2015,04,29,14,52,13.30
2015,04,29,14,53,13.40
2015,04,29,14,54,13.50
2015,04,29,14,55,13.50
2015,04,29,14,56,13.50
2015,04,29,14,57,13.60
2015,04,29,14,58,13.60
2015,04,29,14,59,13.70
2015,04,29,15,00,13.60
2015,04,29,15,01,13.60
2015,04,29,15,02,13.70
2015,04,29,15,03,13.80
2015,04,29,15,04,13.90
2015,04,29,15,05,13.90
2015,04,29,15,06,14.00
2015,04,29,15,07,14.10
2015,04,29,15,08,14.10
2015,04,29,15,09,14.10
2015,04,29,15,10,14.10
2015,04,29,15,11,14.20
2015,04,29,15,12,14.30
2015,04,29,15,13,14.30
2015,04,29,15,14,14.40
2015,04,29,15,15,14.50
2015,04,29,15,16,14.50
2015,04,29,15,17,14.60
2015,04,29,15,18,14.70
2015,04,29,15,19,14.70
2015,04,29,15,20,14.80
2015,04,29,15,21,14.80
2015,04,29,15,22,14.80
2015,04,29,15,23,14.80
2015,04,29,15,24,14.90
2015,04,29,15,25,14.90
2015,04,29,15,26,14.90
2015,04,29,15,27,14.80
2015,04,29,15,28,14.80
2015,04,29,15,29,14.80
2015,04,29,15,30,14.80
2015,04,29,15,31,14.80
2015,04,29,15,32,14.70
2015,04,29,15,33,14.70
2015,04,29,15,34,14.70
2015,04,29,15,35,14.70
2015,04,29,15,36,14.70
2015,04,29,15,37,14.60
2015,04,29,15,38,14.60
2015,04,29,15,39,14.50
2015,04,29,15,40,14.50
2015,04,29,15,41,14.50
2015,04,29,15,42,14.50
2015,04,29,15,43,14.60
2015,04,29,15,44,14.60
2015,04,29,15,45,14.70
2015,04,29,15,46,14.80
2015,04,29,15,47,14.90
2015,04,29,15,48,15.00
2015,04,29,15,49,15.00
2015,04,29,15,50,15.10
2015,04,29,15,51,15.20
2015,04,29,15,52,15.20
2015,04,29,15,53,15.20
2015,04,29,15,54,15.20
2015,04,29,15,55,15.30
2015,04,29,15,56,15.30
2015,04,29,15,57,15.30
2015,04,29,15,58,15.40
2015,04,29,15,59,15.40
2015,04,29,16,00,15.50
2015,04,29,16,01,15.60
2015,04,29,16,02,15.70
2015,04,29,16,03,15.70
2015,04,29,16,04,15.70
2015,04,29,16,05,15.70
2015,04,29,16,06,15.70
2015,04,29,16,07,15.70
2015,04,29,16,08,15.70
2015,04,29,16,09,15.70
2015,04,29,16,10,15.70
2015,04,29,16,11,15.60
2015,04,29,16,12,15.40
2015,04,29,16,13,15.20
2015,04,29,16,14,15.00
2015,04,29,16,15,14.80
2015,04,29,16,16,14.70
2015,04,29,16,17,14.50
2015,04,29,16,18,14.50
2015,04,29,16,19,14.50
2015,04,29,16,20,14.60
2015,04,29,16,21,14.60
2015,04,29,16,22,14.50
2015,04,29,16,23,14.50
2015,04,29,16,24,14.50
2015,04,29,16,25,14.40
2015,04,29,16,26,14.30
2015,04,29,16,27,14.20
2015,04,29,16,28,14.00
2015,04,29,16,29,13.90
2015,04,29,16,30,13.80
2015,04,29,16,31,13.80
2015,04,29,16,32,13.70
2015,04,29,16,33,13.70
2015,04,29,16,34,13.70
2015,04,29,16,35,13.70
2015,04,29,16,36,13.70
2015,04,29,16,37,13.70
2015,04,29,16,38,13.70
2015,04,29,16,39,13.80
2015,04,29,16,40,13.80
2015,04,29,16,41,13.90
2015,04,29,16,42,13.90
2015,04,29,16,43,13.90
2015,04,29,16,44,13.90
2015,04,29,16,45,14.00
2015,04,29,16,46,14.00
2015,04,29,16,47,14.00
2015,04,29,16,48,14.10
2015,04,29,16,49,14.10
2015,04,29,16,50,14.20
2015,04,29,16,51,14.20
2015,04,29,16,52,14.20
2015,04,29,16,53,14.20
2015,04,29,16,54,14.30
2015,04,29,16,55,14.30
2015,04,29,16,56,14.30
2015,04,29,16,57,14.30
2015,04,29,16,58,14.30
2015,04,29,16,59,14.30
2015,04,29,17,00,14.20
2015,04,29,17,01,14.10
2015,04,29,17,02,14.00
2015,04,29,17,03,14.00
2015,04,29,17,04,14.00
2015,04,29,17,05,13.90
2015,04,29,17,06,13.90
2015,04,29,17,07,13.80
2015,04,29,17,08,13.80
2015,04,29,17,09,13.80
2015,04,29,17,10,13.80
2015,04,29,17,11,13.90
2015,04,29,17,12,14.00
2015,04,29,17,13,14.10
2015,04,29,17,14,14.20
2015,04,29,17,15,14.20
2015,04,29,17,16,14.30
2015,04,29,17,17,14.30
2015,04,29,17,18,14.40
2015,04,29,17,19,14.40
2015,04,29,17,20,14.50
2015,04,29,17,21,14.50
2015,04,29,17,22,14.50
2015,04,29,17,23,14.50
2015,04,29,17,24,14.50
2015,04,29,17,25,14.50
2015,04,29,17,26,14.40
2015,04,29,17,27,14.40
2015,04,29,17,28,14.40
2015,04,29,17,29,14.40
2015,04,29,17,30,14.40
2015,04,29,17,31,14.40
2015,04,29,17,32,14.40
2015,04,29,17,33,14.40
2015,04,29,17,34,14.30
2015,04,29,17,35,14.30
2015,04,29,17,36,14.30
2015,04,29,17,37,14.40
2015,04,29,17,38,14.30
2015,04,29,17,39,14.30